Year,Month,Day,Hour,Minute,Value (Times are PST for temperature in C)
2008,08,17,00,00,13.90
2008,08,17,00,01,13.90
2008,08,17,00,02,13.90
2008,08,17,00,03,13.90
2008,08,17,00,04,13.80
2008,08,17,00,05,13.80
2008,08,17,00,06,13.80
2008,08,17,00,07,13.80
2008,08,17,00,08,13.80
2008,08,17,00,09,13.80
2008,08,17,00,10,13.80
2008,08,17,00,11,13.80
2008,08,17,00,12,13.70
2008,08,17,00,13,13.70
2008,08,17,00,14,13.70
2008,08,17,00,15,13.70
2008,08,17,00,16,13.70
2008,08,17,00,17,13.60
2008,08,17,00,18,13.60
2008,08,17,00,19,13.60
2008,08,17,00,20,13.60
2008,08,17,00,21,13.60
2008,08,17,00,22,13.60
2008,08,17,00,23,13.60
2008,08,17,00,24,13.60
2008,08,17,00,25,13.60
2008,08,17,00,26,13.60
2008,08,17,00,27,13.60
2008,08,17,00,28,13.60
2008,08,17,00,29,13.60
2008,08,17,00,30,13.60
2008,08,17,00,31,13.60
2008,08,17,00,32,13.60
2008,08,17,00,33,13.60
2008,08,17,00,34,13.60
2008,08,17,00,35,13.60
2008,08,17,00,36,13.60
2008,08,17,00,37,13.60
2008,08,17,00,38,13.60
2008,08,17,00,39,13.60
2008,08,17,00,40,13.60
2008,08,17,00,41,13.60
2008,08,17,00,42,13.60
2008,08,17,00,43,13.60
2008,08,17,00,44,13.60
2008,08,17,00,45,13.60
2008,08,17,00,46,13.60
2008,08,17,00,47,13.60
2008,08,17,00,48,13.60
2008,08,17,00,49,13.60
2008,08,17,00,50,13.60
2008,08,17,00,51,13.60
2008,08,17,00,52,13.50
2008,08,17,00,53,13.50
2008,08,17,00,54,13.50
2008,08,17,00,55,13.50
2008,08,17,00,56,13.40
2008,08,17,00,57,13.40
2008,08,17,00,58,13.40
2008,08,17,00,59,13.50
2008,08,17,01,00,13.50
2008,08,17,01,01,13.50
2008,08,17,01,02,13.50
2008,08,17,01,03,13.60
2008,08,17,01,04,13.60
2008,08,17,01,05,13.60
2008,08,17,01,06,13.60
2008,08,17,01,07,13.60
2008,08,17,01,08,13.60
2008,08,17,01,09,13.60
2008,08,17,01,10,13.60
2008,08,17,01,11,13.60
2008,08,17,01,12,13.60
2008,08,17,01,13,13.70
2008,08,17,01,14,13.70
2008,08,17,01,15,13.70
2008,08,17,01,16,13.70
2008,08,17,01,17,13.70
2008,08,17,01,18,13.70
2008,08,17,01,19,13.80
2008,08,17,01,20,13.80
2008,08,17,01,21,13.80
2008,08,17,01,22,13.90
2008,08,17,01,23,13.90
2008,08,17,01,24,13.90
2008,08,17,01,25,13.90
2008,08,17,01,26,13.90
2008,08,17,01,27,14.00
2008,08,17,01,28,14.00
2008,08,17,01,29,14.00
2008,08,17,01,30,14.00
2008,08,17,01,31,14.00
2008,08,17,01,32,14.00
2008,08,17,01,33,14.10
2008,08,17,01,34,14.10
2008,08,17,01,35,14.20
2008,08,17,01,36,14.20
2008,08,17,01,37,14.20
2008,08,17,01,38,14.30
2008,08,17,01,39,14.40
2008,08,17,01,40,14.50
2008,08,17,01,41,14.50
2008,08,17,01,42,14.60
2008,08,17,01,43,14.70
2008,08,17,01,44,14.80
2008,08,17,01,45,14.80
2008,08,17,01,46,14.80
2008,08,17,01,47,14.80
2008,08,17,01,48,14.90
2008,08,17,01,49,14.90
2008,08,17,01,50,15.00
2008,08,17,01,51,15.00
2008,08,17,01,52,15.00
2008,08,17,01,53,15.00
2008,08,17,01,54,14.90
2008,08,17,01,55,14.90
2008,08,17,01,56,14.90
2008,08,17,01,57,14.90
2008,08,17,01,58,14.90
2008,08,17,01,59,14.90
2008,08,17,02,00,14.90
2008,08,17,02,01,14.90
2008,08,17,02,02,14.90
2008,08,17,02,03,14.90
2008,08,17,02,04,14.90
2008,08,17,02,05,14.90
2008,08,17,02,06,14.90
2008,08,17,02,07,14.90
2008,08,17,02,08,14.90
2008,08,17,02,09,14.80
2008,08,17,02,10,14.80
2008,08,17,02,11,14.80
2008,08,17,02,12,14.80
2008,08,17,02,13,14.70
2008,08,17,02,14,14.70
2008,08,17,02,15,14.70
2008,08,17,02,16,14.70
2008,08,17,02,17,14.60
2008,08,17,02,18,14.60
2008,08,17,02,19,14.60
2008,08,17,02,20,14.60
2008,08,17,02,21,14.60
2008,08,17,02,22,14.50
2008,08,17,02,23,14.50
2008,08,17,02,24,14.50
2008,08,17,02,25,14.50
2008,08,17,02,26,14.50
2008,08,17,02,27,14.50
2008,08,17,02,28,14.50
2008,08,17,02,29,14.50
2008,08,17,02,30,14.50
2008,08,17,02,31,14.50
2008,08,17,02,32,14.50
2008,08,17,02,33,14.50
2008,08,17,02,34,14.50
2008,08,17,02,35,14.60
2008,08,17,02,36,14.60
2008,08,17,02,37,14.60
2008,08,17,02,38,14.60
2008,08,17,02,39,14.60
2008,08,17,02,40,14.60
2008,08,17,02,41,14.60
2008,08,17,02,42,14.60
2008,08,17,02,43,14.60
2008,08,17,02,44,14.60
2008,08,17,02,45,14.60
2008,08,17,02,46,14.60
2008,08,17,02,47,14.60
2008,08,17,02,48,14.60
2008,08,17,02,49,14.60
2008,08,17,02,50,14.60
2008,08,17,02,51,14.60
2008,08,17,02,52,14.70
2008,08,17,02,53,14.70
2008,08,17,02,54,14.70
2008,08,17,02,55,14.70
2008,08,17,02,56,14.70
2008,08,17,02,57,14.70
2008,08,17,02,58,14.70
2008,08,17,02,59,14.80
2008,08,17,03,00,14.80
2008,08,17,03,01,14.80
2008,08,17,03,02,14.80
2008,08,17,03,03,14.80
2008,08,17,03,04,14.80
2008,08,17,03,05,14.80
2008,08,17,03,06,14.80
2008,08,17,03,07,14.80
2008,08,17,03,08,14.80
2008,08,17,03,09,14.80
2008,08,17,03,10,14.80
2008,08,17,03,11,14.80
2008,08,17,03,12,14.80
2008,08,17,03,13,14.80
2008,08,17,03,14,14.80
2008,08,17,03,15,14.80
2008,08,17,03,16,14.80
2008,08,17,03,17,14.80
2008,08,17,03,18,14.80
2008,08,17,03,19,14.80
2008,08,17,03,20,14.80
2008,08,17,03,21,14.80
2008,08,17,03,22,14.80
2008,08,17,03,23,14.80
2008,08,17,03,24,14.80
2008,08,17,03,25,14.80
2008,08,17,03,26,14.80
2008,08,17,03,27,14.80
2008,08,17,03,28,14.70
2008,08,17,03,29,14.70
2008,08,17,03,30,14.70
2008,08,17,03,31,14.60
2008,08,17,03,32,14.60
2008,08,17,03,33,14.60
2008,08,17,03,34,14.60
2008,08,17,03,35,14.50
2008,08,17,03,36,14.50
2008,08,17,03,37,14.50
2008,08,17,03,38,14.40
2008,08,17,03,39,14.40
2008,08,17,03,40,14.40
2008,08,17,03,41,14.30
2008,08,17,03,42,14.30
2008,08,17,03,43,14.30
2008,08,17,03,44,14.20
2008,08,17,03,45,14.20
2008,08,17,03,46,14.20
2008,08,17,03,47,14.20
2008,08,17,03,48,14.20
2008,08,17,03,49,14.20
2008,08,17,03,50,14.20
2008,08,17,03,51,14.20
2008,08,17,03,52,14.20
2008,08,17,03,53,14.20
2008,08,17,03,54,14.20
2008,08,17,03,55,14.20
2008,08,17,03,56,14.20
2008,08,17,03,57,14.20
2008,08,17,03,58,14.20
2008,08,17,03,59,14.20
2008,08,17,04,00,14.20
2008,08,17,04,01,14.20
2008,08,17,04,02,14.20
2008,08,17,04,03,14.20
2008,08,17,04,04,14.20
2008,08,17,04,05,14.20
2008,08,17,04,06,14.20
2008,08,17,04,07,14.20
2008,08,17,04,08,14.20
2008,08,17,04,09,14.20
2008,08,17,04,10,14.20
2008,08,17,04,11,14.20
2008,08,17,04,12,14.30
2008,08,17,04,13,14.30
2008,08,17,04,14,14.40
2008,08,17,04,15,14.40
2008,08,17,04,16,14.40
2008,08,17,04,17,14.50
2008,08,17,04,18,14.50
2008,08,17,04,19,14.50
2008,08,17,04,20,14.50
2008,08,17,04,21,14.60
2008,08,17,04,22,14.60
2008,08,17,04,23,14.60
2008,08,17,04,24,14.60
2008,08,17,04,25,14.70
2008,08,17,04,26,14.70
2008,08,17,04,27,14.70
2008,08,17,04,28,14.70
2008,08,17,04,29,14.80
2008,08,17,04,30,14.80
2008,08,17,04,31,14.80
2008,08,17,04,32,14.80
2008,08,17,04,33,14.80
2008,08,17,04,34,14.80
2008,08,17,04,35,14.80
2008,08,17,04,36,14.80
2008,08,17,04,37,14.80
2008,08,17,04,38,14.80
2008,08,17,04,39,14.80
2008,08,17,04,40,14.80
2008,08,17,04,41,14.80
2008,08,17,04,42,14.80
2008,08,17,04,43,14.80
2008,08,17,04,44,14.70
2008,08,17,04,45,14.70
2008,08,17,04,46,14.70
2008,08,17,04,47,14.70
2008,08,17,04,48,14.70
2008,08,17,04,49,14.70
2008,08,17,04,50,14.60
2008,08,17,04,51,14.60
2008,08,17,04,52,14.60
2008,08,17,04,53,14.60
2008,08,17,04,54,14.50
2008,08,17,04,55,14.50
2008,08,17,04,56,14.50
2008,08,17,04,57,14.50
2008,08,17,04,58,14.40
2008,08,17,04,59,14.40
2008,08,17,05,00,14.40
2008,08,17,05,01,14.40
2008,08,17,05,02,14.40
2008,08,17,05,03,14.30
2008,08,17,05,04,14.30
2008,08,17,05,05,14.30
2008,08,17,05,06,14.30
2008,08,17,05,07,14.30
2008,08,17,05,08,14.20
2008,08,17,05,09,14.20
2008,08,17,05,10,14.20
2008,08,17,05,11,14.20
2008,08,17,05,12,14.20
2008,08,17,05,13,14.20
2008,08,17,05,14,14.20
2008,08,17,05,15,14.20
2008,08,17,05,16,14.20
2008,08,17,05,17,14.20
2008,08,17,05,18,14.20
2008,08,17,05,19,14.20
2008,08,17,05,20,14.20
2008,08,17,05,21,14.20
2008,08,17,05,22,14.20
2008,08,17,05,23,14.20
2008,08,17,05,24,14.20
2008,08,17,05,25,14.20
2008,08,17,05,26,14.20
2008,08,17,05,27,14.20
2008,08,17,05,28,14.20
2008,08,17,05,29,14.20
2008,08,17,05,30,14.20
2008,08,17,05,31,14.20
2008,08,17,05,32,14.20
2008,08,17,05,33,14.20
2008,08,17,05,34,14.20
2008,08,17,05,35,14.20
2008,08,17,05,36,14.20
2008,08,17,05,37,14.30
2008,08,17,05,38,14.30
2008,08,17,05,39,14.30
2008,08,17,05,40,14.30
2008,08,17,05,41,14.30
2008,08,17,05,42,14.30
2008,08,17,05,43,14.30
2008,08,17,05,44,14.30
2008,08,17,05,45,14.30
2008,08,17,05,46,14.30
2008,08,17,05,47,14.30
2008,08,17,05,48,14.40
2008,08,17,05,49,14.40
2008,08,17,05,50,14.40
2008,08,17,05,51,14.40
2008,08,17,05,52,14.40
2008,08,17,05,53,14.30
2008,08,17,05,54,14.10
2008,08,17,05,55,13.90
2008,08,17,05,56,13.80
2008,08,17,05,57,13.70
2008,08,17,05,58,13.60
2008,08,17,05,59,13.50
2008,08,17,06,00,13.40
2008,08,17,06,01,13.30
2008,08,17,06,02,13.20
2008,08,17,06,03,13.20
2008,08,17,06,04,13.10
2008,08,17,06,05,13.00
2008,08,17,06,06,13.00
2008,08,17,06,07,12.90
2008,08,17,06,08,12.80
2008,08,17,06,09,12.80
2008,08,17,06,10,12.80
2008,08,17,06,11,12.80
2008,08,17,06,12,12.80
2008,08,17,06,13,12.70
2008,08,17,06,14,12.60
2008,08,17,06,15,12.60
2008,08,17,06,16,12.50
2008,08,17,06,17,12.50
2008,08,17,06,18,12.40
2008,08,17,06,19,12.40
2008,08,17,06,20,12.40
2008,08,17,06,21,12.30
2008,08,17,06,22,12.30
2008,08,17,06,23,12.30
2008,08,17,06,24,12.30
2008,08,17,06,25,12.20
2008,08,17,06,26,12.20
2008,08,17,06,27,12.20
2008,08,17,06,28,12.10
2008,08,17,06,29,12.10
2008,08,17,06,30,12.10
2008,08,17,06,31,12.00
2008,08,17,06,32,12.00
2008,08,17,06,33,12.00
2008,08,17,06,34,12.00
2008,08,17,06,35,12.00
2008,08,17,06,36,12.00
2008,08,17,06,37,12.00
2008,08,17,06,38,12.00
2008,08,17,06,39,12.00
2008,08,17,06,40,12.00
2008,08,17,06,41,12.10
2008,08,17,06,42,12.10
2008,08,17,06,43,12.10
2008,08,17,06,44,12.10
2008,08,17,06,45,12.10
2008,08,17,06,46,12.10
2008,08,17,06,47,12.10
2008,08,17,06,48,12.10
2008,08,17,06,49,12.00
2008,08,17,06,50,12.00
2008,08,17,06,51,12.00
2008,08,17,06,52,12.00
2008,08,17,06,53,12.00
2008,08,17,06,54,12.00
2008,08,17,06,55,12.00
2008,08,17,06,56,12.00
2008,08,17,06,57,12.00
2008,08,17,06,58,12.00
2008,08,17,06,59,12.00
2008,08,17,07,00,12.00
2008,08,17,07,01,12.00
2008,08,17,07,02,12.00
2008,08,17,07,03,12.00
2008,08,17,07,04,12.00
2008,08,17,07,05,12.00
2008,08,17,07,06,12.00
2008,08,17,07,07,12.10
2008,08,17,07,08,12.10
2008,08,17,07,09,12.10
2008,08,17,07,10,12.10
2008,08,17,07,11,12.10
2008,08,17,07,12,12.10
2008,08,17,07,13,12.10
2008,08,17,07,14,12.10
2008,08,17,07,15,12.20
2008,08,17,07,16,12.20
2008,08,17,07,17,12.20
2008,08,17,07,18,12.30
2008,08,17,07,19,12.30
2008,08,17,07,20,12.40
2008,08,17,07,21,12.50
2008,08,17,07,22,12.60
2008,08,17,07,23,12.60
2008,08,17,07,24,12.70
2008,08,17,07,25,12.80
2008,08,17,07,26,12.80
2008,08,17,07,27,12.90
2008,08,17,07,28,13.00
2008,08,17,07,29,13.00
2008,08,17,07,30,13.10
2008,08,17,07,31,13.10
2008,08,17,07,32,13.20
2008,08,17,07,33,13.20
2008,08,17,07,34,13.20
2008,08,17,07,35,13.20
2008,08,17,07,36,13.10
2008,08,17,07,37,13.10
2008,08,17,07,38,13.00
2008,08,17,07,39,13.00
2008,08,17,07,40,12.90
2008,08,17,07,41,12.90
2008,08,17,07,42,12.90
2008,08,17,07,43,12.80
2008,08,17,07,44,12.80
2008,08,17,07,45,12.80
2008,08,17,07,46,12.80
2008,08,17,07,47,12.80
2008,08,17,07,48,12.80
2008,08,17,07,49,12.80
2008,08,17,07,50,12.80
2008,08,17,07,51,12.80
2008,08,17,07,52,12.80
2008,08,17,07,53,12.80
2008,08,17,07,54,12.80
2008,08,17,07,55,12.80
2008,08,17,07,56,12.80
2008,08,17,07,57,12.80
2008,08,17,07,58,12.80
2008,08,17,07,59,12.80
2008,08,17,08,00,12.80
2008,08,17,08,01,12.80
2008,08,17,08,02,12.80
2008,08,17,08,03,12.80
2008,08,17,08,04,12.90
2008,08,17,08,05,12.90
2008,08,17,08,06,12.90
2008,08,17,08,07,12.90
2008,08,17,08,08,13.00
2008,08,17,08,09,13.00
2008,08,17,08,10,13.00
2008,08,17,08,11,13.10
2008,08,17,08,12,13.10
2008,08,17,08,13,13.10
2008,08,17,08,14,13.20
2008,08,17,08,15,13.30
2008,08,17,08,16,13.30
2008,08,17,08,17,13.40
2008,08,17,08,18,13.50
2008,08,17,08,19,13.60
2008,08,17,08,20,13.70
2008,08,17,08,21,13.80
2008,08,17,08,22,13.90
2008,08,17,08,23,14.00
2008,08,17,08,24,14.20
2008,08,17,08,25,14.30
2008,08,17,08,26,14.50
2008,08,17,08,27,14.60
2008,08,17,08,28,14.80
2008,08,17,08,29,14.90
2008,08,17,08,30,15.10
2008,08,17,08,31,15.10
2008,08,17,08,32,15.30
2008,08,17,08,33,15.40
2008,08,17,08,34,15.50
2008,08,17,08,35,15.50
2008,08,17,08,36,15.60
2008,08,17,08,37,15.60
2008,08,17,08,38,15.60
2008,08,17,08,39,15.60
2008,08,17,08,40,15.60
2008,08,17,08,41,15.70
2008,08,17,08,42,15.80
2008,08,17,08,43,15.80
2008,08,17,08,44,15.90
2008,08,17,08,45,15.90
2008,08,17,08,46,15.90
2008,08,17,08,47,15.90
2008,08,17,08,48,16.00
2008,08,17,08,49,16.10
2008,08,17,08,50,16.10
2008,08,17,08,51,16.10
2008,08,17,08,52,16.10
2008,08,17,08,53,16.10
2008,08,17,08,54,16.20
2008,08,17,08,55,16.20
2008,08,17,08,56,16.30
2008,08,17,08,57,16.30
2008,08,17,08,58,16.30
2008,08,17,08,59,16.40
2008,08,17,09,00,16.40
2008,08,17,09,01,16.50
2008,08,17,09,02,16.60
2008,08,17,09,03,16.70
2008,08,17,09,04,16.70
2008,08,17,09,05,16.70
2008,08,17,09,06,16.70
2008,08,17,09,07,16.70
2008,08,17,09,08,16.70
2008,08,17,09,09,16.70
2008,08,17,09,10,16.70
2008,08,17,09,11,16.70
2008,08,17,09,12,16.70
2008,08,17,09,13,16.70
2008,08,17,09,14,16.80
2008,08,17,09,15,16.90
2008,08,17,09,16,17.00
2008,08,17,09,17,17.10
2008,08,17,09,18,17.20
2008,08,17,09,19,17.30
2008,08,17,09,20,17.50
2008,08,17,09,21,17.60
2008,08,17,09,22,17.80
2008,08,17,09,23,18.00
2008,08,17,09,24,18.10
2008,08,17,09,25,18.20
2008,08,17,09,26,18.30
2008,08,17,09,27,18.40
2008,08,17,09,28,18.40
2008,08,17,09,29,18.50
2008,08,17,09,30,18.60
2008,08,17,09,31,18.70
2008,08,17,09,32,18.80
2008,08,17,09,33,18.90
2008,08,17,09,34,19.10
2008,08,17,09,35,19.30
2008,08,17,09,36,19.40
2008,08,17,09,37,19.60
2008,08,17,09,38,19.70
2008,08,17,09,39,19.90
2008,08,17,09,40,19.90
2008,08,17,09,41,20.10
2008,08,17,09,42,20.20
2008,08,17,09,43,20.20
2008,08,17,09,44,20.40
2008,08,17,09,45,20.60
2008,08,17,09,46,20.70
2008,08,17,09,47,20.80
2008,08,17,09,48,20.80
2008,08,17,09,49,20.90
2008,08,17,09,50,20.90
2008,08,17,09,51,20.90
2008,08,17,09,52,21.00
2008,08,17,09,53,21.00
2008,08,17,09,54,21.20
2008,08,17,09,55,21.30
2008,08,17,09,56,21.30
2008,08,17,09,57,21.30
2008,08,17,09,58,21.40
2008,08,17,09,59,21.40
2008,08,17,10,00,21.60
2008,08,17,10,01,21.60
2008,08,17,10,02,21.60
2008,08,17,10,03,21.70
2008,08,17,10,04,21.80
2008,08,17,10,05,21.80
2008,08,17,10,06,21.90
2008,08,17,10,07,21.90
2008,08,17,10,08,22.00
2008,08,17,10,09,22.00
2008,08,17,10,10,22.10
2008,08,17,10,11,22.20
2008,08,17,10,12,22.30
2008,08,17,10,13,22.50
2008,08,17,10,14,22.60
2008,08,17,10,15,22.70
2008,08,17,10,16,22.90
2008,08,17,10,17,22.90
2008,08,17,10,18,23.00
2008,08,17,10,19,23.10
2008,08,17,10,20,23.20
2008,08,17,10,21,23.30
2008,08,17,10,22,23.30
2008,08,17,10,23,23.50
2008,08,17,10,24,23.60
2008,08,17,10,25,23.70
2008,08,17,10,26,23.70
2008,08,17,10,27,23.70
2008,08,17,10,28,23.70
2008,08,17,10,29,23.70
2008,08,17,10,30,23.70
2008,08,17,10,31,23.70
2008,08,17,10,32,23.70
2008,08,17,10,33,23.70
2008,08,17,10,34,23.70
2008,08,17,10,35,23.70
2008,08,17,10,36,23.70
2008,08,17,10,37,23.70
2008,08,17,10,38,23.70
2008,08,17,10,39,23.70
2008,08,17,10,40,23.60
2008,08,17,10,41,23.30
2008,08,17,10,42,23.00
2008,08,17,10,43,22.80
2008,08,17,10,44,22.60
2008,08,17,10,45,22.40
2008,08,17,10,46,22.20
2008,08,17,10,47,21.90
2008,08,17,10,48,21.70
2008,08,17,10,49,21.60
2008,08,17,10,50,21.50
2008,08,17,10,51,21.30
2008,08,17,10,52,21.20
2008,08,17,10,53,21.00
2008,08,17,10,54,20.90
2008,08,17,10,55,20.80
2008,08,17,10,56,20.80
2008,08,17,10,57,20.80
2008,08,17,10,58,20.80
2008,08,17,10,59,20.80
2008,08,17,11,00,20.90
2008,08,17,11,01,20.90
2008,08,17,11,02,21.00
2008,08,17,11,03,21.10
2008,08,17,11,04,21.20
2008,08,17,11,05,21.30
2008,08,17,11,06,21.40
2008,08,17,11,07,21.50
2008,08,17,11,08,21.60
2008,08,17,11,09,21.70
2008,08,17,11,10,21.70
2008,08,17,11,11,21.70
2008,08,17,11,12,21.70
2008,08,17,11,13,21.70
2008,08,17,11,14,21.60
2008,08,17,11,15,21.60
2008,08,17,11,16,21.50
2008,08,17,11,17,21.40
2008,08,17,11,18,21.40
2008,08,17,11,19,21.40
2008,08,17,11,20,21.40
2008,08,17,11,21,21.40
2008,08,17,11,22,21.40
2008,08,17,11,23,21.30
2008,08,17,11,24,21.30
2008,08,17,11,25,21.30
2008,08,17,11,26,21.30
2008,08,17,11,27,21.30
2008,08,17,11,28,21.40
2008,08,17,11,29,21.50
2008,08,17,11,30,21.60
2008,08,17,11,31,21.60
2008,08,17,11,32,21.60
2008,08,17,11,33,21.60
2008,08,17,11,34,21.60
2008,08,17,11,35,21.70
2008,08,17,11,36,21.70
2008,08,17,11,37,21.80
2008,08,17,11,38,21.90
2008,08,17,11,39,22.00
2008,08,17,11,40,22.00
2008,08,17,11,41,22.00
2008,08,17,11,42,22.00
2008,08,17,11,43,22.00
2008,08,17,11,44,22.00
2008,08,17,11,45,22.00
2008,08,17,11,46,22.00
2008,08,17,11,47,22.00
2008,08,17,11,48,22.00
2008,08,17,11,49,22.00
2008,08,17,11,50,21.90
2008,08,17,11,51,21.80
2008,08,17,11,52,21.70
2008,08,17,11,53,21.60
2008,08,17,11,54,21.60
2008,08,17,11,55,21.60
2008,08,17,11,56,21.50
2008,08,17,11,57,21.40
2008,08,17,11,58,21.40
2008,08,17,11,59,21.60
2008,08,17,12,00,21.60
2008,08,17,12,01,21.60
2008,08,17,12,02,21.50
2008,08,17,12,03,21.40
2008,08,17,12,04,21.40
2008,08,17,12,05,21.40
2008,08,17,12,06,21.50
2008,08,17,12,07,21.60
2008,08,17,12,08,21.70
2008,08,17,12,09,21.70
2008,08,17,12,10,21.70
2008,08,17,12,11,21.70
2008,08,17,12,12,21.70
2008,08,17,12,13,21.70
2008,08,17,12,14,21.80
2008,08,17,12,15,21.90
2008,08,17,12,16,22.00
2008,08,17,12,17,22.10
2008,08,17,12,18,22.20
2008,08,17,12,19,22.20
2008,08,17,12,20,22.30
2008,08,17,12,21,22.30
2008,08,17,12,22,22.30
2008,08,17,12,23,22.30
2008,08,17,12,24,22.30
2008,08,17,12,25,22.20
2008,08,17,12,26,22.20
2008,08,17,12,27,22.30
2008,08,17,12,28,22.30
2008,08,17,12,29,22.40
2008,08,17,12,30,22.40
2008,08,17,12,31,22.40
2008,08,17,12,32,22.40
2008,08,17,12,33,22.40
2008,08,17,12,34,22.30
2008,08,17,12,35,22.30
2008,08,17,12,36,22.30
2008,08,17,12,37,22.20
2008,08,17,12,38,22.10
2008,08,17,12,39,22.20
2008,08,17,12,40,22.20
2008,08,17,12,41,22.20
2008,08,17,12,42,22.20
2008,08,17,12,43,22.20
2008,08,17,12,44,22.20
2008,08,17,12,45,22.30
2008,08,17,12,46,22.40
2008,08,17,12,47,22.40
2008,08,17,12,48,22.50
2008,08,17,12,49,22.50
2008,08,17,12,50,22.40
2008,08,17,12,51,22.40
2008,08,17,12,52,22.20
2008,08,17,12,53,22.10
2008,08,17,12,54,22.10
2008,08,17,12,55,22.10
2008,08,17,12,56,22.20
2008,08,17,12,57,22.20
2008,08,17,12,58,22.30
2008,08,17,12,59,22.50
2008,08,17,13,00,22.60
2008,08,17,13,01,22.70
2008,08,17,13,02,22.80
2008,08,17,13,03,22.90
2008,08,17,13,04,22.90
2008,08,17,13,05,22.90
2008,08,17,13,06,23.00
2008,08,17,13,07,23.10
2008,08,17,13,08,23.30
2008,08,17,13,09,23.40
2008,08,17,13,10,23.50
2008,08,17,13,11,23.70
2008,08,17,13,12,23.80
2008,08,17,13,13,23.90
2008,08,17,13,14,23.90
2008,08,17,13,15,24.00
2008,08,17,13,16,24.10
2008,08,17,13,17,24.10
2008,08,17,13,18,24.10
2008,08,17,13,19,24.10
2008,08,17,13,20,24.10
2008,08,17,13,21,24.10
2008,08,17,13,22,24.20
2008,08,17,13,23,24.20
2008,08,17,13,24,24.20
2008,08,17,13,25,24.30
2008,08,17,13,26,24.30
2008,08,17,13,27,24.40
2008,08,17,13,28,24.40
2008,08,17,13,29,24.40
2008,08,17,13,30,24.40
2008,08,17,13,31,24.40
2008,08,17,13,32,24.40
2008,08,17,13,33,24.30
2008,08,17,13,34,24.30
2008,08,17,13,35,24.30
2008,08,17,13,36,24.20
2008,08,17,13,37,24.20
2008,08,17,13,38,24.20
2008,08,17,13,39,24.20
2008,08,17,13,40,24.10
2008,08,17,13,41,24.10
2008,08,17,13,42,24.10
2008,08,17,13,43,24.10
2008,08,17,13,44,23.90
2008,08,17,13,45,23.80
2008,08,17,13,46,23.80
2008,08,17,13,47,23.70
2008,08,17,13,48,23.70
2008,08,17,13,49,23.60
2008,08,17,13,50,23.60
2008,08,17,13,51,23.50
2008,08,17,13,52,23.40
2008,08,17,13,53,23.40
2008,08,17,13,54,23.40
2008,08,17,13,55,23.30
2008,08,17,13,56,23.30
2008,08,17,13,57,23.30
2008,08,17,13,58,23.30
2008,08,17,13,59,23.30
2008,08,17,14,00,23.30
2008,08,17,14,01,23.30
2008,08,17,14,02,23.30
2008,08,17,14,03,23.30
2008,08,17,14,04,23.30
2008,08,17,14,05,23.30
2008,08,17,14,06,23.30
2008,08,17,14,07,23.30
2008,08,17,14,08,23.20
2008,08,17,14,09,23.20
2008,08,17,14,10,23.20
2008,08,17,14,11,23.20
2008,08,17,14,12,23.20
2008,08,17,14,13,23.20
2008,08,17,14,14,23.20
2008,08,17,14,15,23.10
2008,08,17,14,16,23.10
2008,08,17,14,17,23.00
2008,08,17,14,18,22.90
2008,08,17,14,19,22.90
2008,08,17,14,20,22.90
2008,08,17,14,21,22.90
2008,08,17,14,22,23.00
2008,08,17,14,23,23.10
2008,08,17,14,24,23.20
2008,08,17,14,25,23.20
2008,08,17,14,26,23.30
2008,08,17,14,27,23.30
2008,08,17,14,28,23.40
2008,08,17,14,29,23.60
2008,08,17,14,30,23.70
2008,08,17,14,31,23.70
2008,08,17,14,32,23.80
2008,08,17,14,33,23.90
2008,08,17,14,34,24.00
2008,08,17,14,35,24.10
2008,08,17,14,36,24.20
2008,08,17,14,37,24.10
2008,08,17,14,38,24.10
2008,08,17,14,39,24.10
2008,08,17,14,40,24.00
2008,08,17,14,41,23.90
2008,08,17,14,42,23.80
2008,08,17,14,43,23.70
2008,08,17,14,44,23.70
2008,08,17,14,45,23.60
2008,08,17,14,46,23.50
2008,08,17,14,47,23.30
2008,08,17,14,48,23.10
2008,08,17,14,49,22.80
2008,08,17,14,50,22.60
2008,08,17,14,51,22.40
2008,08,17,14,52,22.30
2008,08,17,14,53,22.30
2008,08,17,14,54,22.30
2008,08,17,14,55,22.30
2008,08,17,14,56,22.30
2008,08,17,14,57,22.40
2008,08,17,14,58,22.40
2008,08,17,14,59,22.40
2008,08,17,15,00,22.40
2008,08,17,15,01,22.40
2008,08,17,15,02,22.40
2008,08,17,15,03,22.30
2008,08,17,15,04,22.30
2008,08,17,15,05,22.20
2008,08,17,15,06,22.10
2008,08,17,15,07,22.00
2008,08,17,15,08,21.90
2008,08,17,15,09,21.90
2008,08,17,15,10,21.80
2008,08,17,15,11,21.80
2008,08,17,15,12,21.90
2008,08,17,15,13,21.90
2008,08,17,15,14,21.90
2008,08,17,15,15,21.90
2008,08,17,15,16,21.90
2008,08,17,15,17,22.00
2008,08,17,15,18,22.00
2008,08,17,15,19,22.00
2008,08,17,15,20,22.00
2008,08,17,15,21,22.00
2008,08,17,15,22,22.10
2008,08,17,15,23,22.20
2008,08,17,15,24,22.20
2008,08,17,15,25,22.30
2008,08,17,15,26,22.40
2008,08,17,15,27,22.40
2008,08,17,15,28,22.50
2008,08,17,15,29,22.60
2008,08,17,15,30,22.60
2008,08,17,15,31,22.70
2008,08,17,15,32,22.70
2008,08,17,15,33,22.80
2008,08,17,15,34,22.80
2008,08,17,15,35,22.90
2008,08,17,15,36,22.90
2008,08,17,15,37,22.90
2008,08,17,15,38,22.90
2008,08,17,15,39,22.90
2008,08,17,15,40,22.90
2008,08,17,15,41,22.90
2008,08,17,15,42,22.90
2008,08,17,15,43,22.90
2008,08,17,15,44,22.90
2008,08,17,15,45,22.90
2008,08,17,15,46,22.80
2008,08,17,15,47,22.60
2008,08,17,15,48,22.60
2008,08,17,15,49,22.50
2008,08,17,15,50,22.40
2008,08,17,15,51,22.40
2008,08,17,15,52,22.30
2008,08,17,15,53,22.30
2008,08,17,15,54,22.20
2008,08,17,15,55,22.20
2008,08,17,15,56,22.10
2008,08,17,15,57,22.10
2008,08,17,15,58,22.10
2008,08,17,15,59,22.00
2008,08,17,16,00,22.00
2008,08,17,16,01,22.00
2008,08,17,16,02,22.00
2008,08,17,16,03,22.00
2008,08,17,16,04,22.00
2008,08,17,16,05,22.00
2008,08,17,16,06,22.00
2008,08,17,16,07,22.00
2008,08,17,16,08,22.10
2008,08,17,16,09,22.10
2008,08,17,16,10,22.20
2008,08,17,16,11,22.30
2008,08,17,16,12,22.30
2008,08,17,16,13,22.40
2008,08,17,16,14,22.40
2008,08,17,16,15,22.50
2008,08,17,16,16,22.50
2008,08,17,16,17,22.50
2008,08,17,16,18,22.50
2008,08,17,16,19,22.50
2008,08,17,16,20,22.50
2008,08,17,16,21,22.50
2008,08,17,16,22,22.50
2008,08,17,16,23,22.50
2008,08,17,16,24,22.50
2008,08,17,16,25,22.60
2008,08,17,16,26,22.60
2008,08,17,16,27,22.60
2008,08,17,16,28,22.60
2008,08,17,16,29,22.60
2008,08,17,16,30,22.50
2008,08,17,16,31,22.40
2008,08,17,16,32,22.30
2008,08,17,16,33,22.20
2008,08,17,16,34,22.20
2008,08,17,16,35,22.10
2008,08,17,16,36,22.00
2008,08,17,16,37,21.90
2008,08,17,16,38,21.70
2008,08,17,16,39,21.50
2008,08,17,16,40,21.30
2008,08,17,16,41,21.10
2008,08,17,16,42,21.00
2008,08,17,16,43,20.80
2008,08,17,16,44,20.70
2008,08,17,16,45,20.60
2008,08,17,16,46,20.50
2008,08,17,16,47,20.40
2008,08,17,16,48,20.20
2008,08,17,16,49,20.20
2008,08,17,16,50,20.10
2008,08,17,16,51,20.00
2008,08,17,16,52,19.90
2008,08,17,16,53,19.90
2008,08,17,16,54,19.80
2008,08,17,16,55,19.70
2008,08,17,16,56,19.50
2008,08,17,16,57,19.40
2008,08,17,16,58,19.20
2008,08,17,16,59,19.00
2008,08,17,17,00,18.90
2008,08,17,17,01,18.80
2008,08,17,17,02,18.70
2008,08,17,17,03,18.60
2008,08,17,17,04,18.50
2008,08,17,17,05,18.30
2008,08,17,17,06,18.30
2008,08,17,17,07,18.20
2008,08,17,17,08,18.20
2008,08,17,17,09,18.20
2008,08,17,17,10,18.10
2008,08,17,17,11,18.10
2008,08,17,17,12,18.00
2008,08,17,17,13,17.90
2008,08,17,17,14,17.90
2008,08,17,17,15,17.90
2008,08,17,17,16,17.90
2008,08,17,17,17,17.90
2008,08,17,17,18,18.00
2008,08,17,17,19,18.20